Theta_e
310 310 311 313 314 315 316 317 318 318 319 320 320 320 320 320 320 320 320 320 321 321 321 321 322 323 324 325 326 326 325 324 325 324 324 324 323 324 324 323 322 322 321 320 322 324 324 325 325 326 326 326 326 325 324 322 320 317 316 315 314 315 315 315 316 316 317 317 318 320 320 321 321 322 322 322 322 321 321 321 321 320 319 318 317 315 315 315 315 315 315 315 315 315 315 315 314 315 315 316 316 316 316
309 310 310 311 312 313 313 314 314 315 315 316 316 316 317 317 317 316 316 316 317 317 317 318 320 322 323 324 325 324 324 324 323 323 324 323 322 322 323 322 321 320 320 321 322 323 323 323 323 323 322 320 319 318 317 314 312 311 310 310 310 310 311 312 312 312 312 313 315 317 317 318 319 319 319 318 317 316 315 315 315 315 314 313 313 312 312 312 312 311 311 311 312 312 313 313 312 311 311 312 312 313 314
309 309 310 310 310 311 312 312 312 313 313 313 313 314 315 315 315 315 314 313 313 314 315 316 317 319 320 320 320 321 322 321 322 321 322 322 322 322 322 321 320 319 320 321 321 320 320 319 318 316 314 313 312 312 311 310 309 309 308 308 308 308 309 309 309 308 308 309 310 311 312 312 312 313 313 312 311 310 309 310 310 311 311 310 310 309 309 308 308 308 308 308 308 309 310 310 310 309 308 308 309 310 310
308 308 308 309 309 309 310 310 310 311 311 311 311 313 313 314 314 314 313 313 312 312 312 313 314 314 315 316 316 318 318 319 320 321 321 322 323 322 322 321 320 320 320 319 318 317 315 314 312 310 309 309 309 309 309 309 309 308 308 308 307 307 307 307 307 307 307 307 307 307 307 307 308 308 308 308 307 307 307 307 307 308 308 308 308 307 307 306 306 305 305 305 306 306 306 306 307 307 306 307 307 308 307
307 307 307 308 308 308 309 309 309 310 310 310 311 312 312 313 312 311 311 311 310 310 310 311 312 312 312 312 312 313 314 316 318 320 321 321 321 320 321 321 320 320 319 317 315 314 314 313 311 310 309 308 309 309 309 309 309 308 308 307 307 307 307 307 306 306 306 306 306 306 305 305 306 306 306 306 306 306 306 306 306 306 306 306 306 306 305 305 304 304 304 304 304 304 303 303 304 306 306 306 306 307 306
306 306 306 307 307 308 308 309 309 309 310 311 311 311 311 311 310 310 309 308 308 309 309 309 310 310 310 311 311 312 313 315 317 317 316 316 316 317 318 318 317 317 316 314 311 310 311 312 312 311 309 308 308 308 308 308 308 308 307 307 307 307 307 306 306 306 306 306 305 305 305 305 305 305 305 305 305 305 305 305 305 305 305 305 304 304 304 304 303 303 303 303 303 303 303 302 302 304 305 305 305 305 305
305 305 306 306 306 307 307 308 309 310 310 310 310 310 309 309 309 308 308 307 307 307 307 307 309 310 310 310 311 312 313 313 311 310 310 311 312 313 314 314 314 314 313 311 309 308 309 309 309 309 308 307 307 307 306 306 306 307 307 307 307 306 306 306 306 306 306 306 306 305 305 305 305 305 305 305 305 305 305 305 305 305 305 304 304 303 303 303 303 303 303 303 303 303 303 303 302 302 302 303 303 304 304
304 304 305 305 305 306 306 307 309 310 310 309 308 308 307 307 307 307 307 307 306 307 307 307 308 309 310 311 312 311 311 309 308 307 308 309 310 310 310 311 311 312 312 311 310 309 308 308 307 307 306 306 306 306 306 306 306 307 306 306 306 306 306 306 306 306 306 306 306 306 305 305 305 305 305 306 305 305 305 305 305 305 305 304 304 303 303 302 302 302 303 303 303 303 303 303 302 301 301 301 302 303 304
303 304 304 304 305 305 306 307 308 309 308 308 307 306 306 306 307 307 307 308 308 308 309 309 309 310 309 309 308 307 306 307 307 308 308 308 308 307 308 308 308 308 308 308 307 306 305 304 304 304 303 303 304 305 305 305 305 306 306 306 306 306 306 306 305 305 305 306 305 305 305 305 305 305 305 306 306 306 306 305 305 305 305 304 303 303 303 303 303 303 303 303 303 303 303 302 302 301 301 301 301 302 303
303 303 303 304 305 306 306 307 307 307 307 306 306 305 306 306 307 307 308 308 307 307 307 307 306 305 305 305 305 304 305 306 306 307 307 306 306 305 305 305 305 304 304 304 303 302 301 301 301 300 301 301 302 303 303 303 304 305 305 306 306 306 306 305 305 305 305 305 305 305 305 305 305 305 305 305 306 306 305 305 305 305 304 304 304 303 303 303 304 303 303 303 303 303 303 302 302 302 302 301 301 301 302
303 303 304 304 305 305 305 305 306 305 305 305 305 304 304 305 305 304 305 305 304 304 304 304 304 304 303 303 303 304 304 305 305 305 305 305 304 304 303 303 302 302 301 301 301 300 299 299 300 300 301 301 301 302 302 303 304 305 305 306 306 306 305 305 305 305 305 305 305 305 305 305 304 304 305 305 305 305 305 305 305 305 305 304 304 304 303 303 303 303 302 302 302 302 302 302 302 302 302 302 301 300 300
303 303 303 304 304 304 304 304 304 304 304 303 303 303 303 303 303 302 302 303 303 303 303 303 303 302 302 302 303 303 303 304 304 304 304 303 303 302 302 302 301 301 301 301 300 300 299 299 300 301 301 302 302 301 302 303 304 304 304 305 305 306 305 305 305 304 304 305 304 305 305 305 305 304 305 305 305 305 305 305 305 305 304 304 304 303 303 302 302 302 302 302 302 302 302 301 301 301 301 301 300 299 299
302 301 302 302 302 301 301 301 302 302 302 301 301 302 302 302 302 301 302 302 302 302 302 302 301 302 302 302 302 302 302 303 303 303 303 302 301 301 301 301 301 301 301 300 300 299 299 299 300 301 301 301 302 302 302 302 303 303 303 304 304 305 305 305 305 304 304 304 304 304 304 304 304 304 304 304 305 305 305 304 304 304 304 303 303 302 302 302 302 302 302 302 301 301 301 301 301 301 300 300 299 298 298
301 301 301 301 300 300 300 300 300 301 301 301 301 301 301 301 301 301 301 301 301 301 301 301 301 301 301 301 301 301 302 302 302 301 302 301 301 300 300 300 300 300 300 299 299 299 299 299 299 300 300 301 301 302 302 302 302 302 303 303 304 304 304 305 304 304 304 304 304 304 304 304 304 304 304 304 304 304 304 304 304 304 303 303 302 302 302 302 302 301 301 301 301 301 300 300 300 300 300 300 299 298 298
300 300 300 300 300 300 300 300 300 301 301 301 301 301 300 300 300 300 300 300 300 300 300 300 300 300 300 300 300 300 301 301 301 300 301 301 300 300 300 300 299 299 299 299 299 299 299 299 299 300 301 301 301 301 301 301 301 302 302 303 303 303 304 304 304 304 304 304 304 304 303 303 304 303 303 303 303 303 303 303 303 303 303 303 302 302 302 302 301 301 301 300 300 300 300 299 299 300 300 299 299 299 298
300 300 300 300 300 300 300 300 300 300 300 300 300 300 300 300 300 300 300 300 300 300 300 299 299 299 299 299 299 299 300 300 300 300 300 300 300 300 300 299 299 299 298 298 298 299 299 299 300 300 300 300 300 300 301 300 300 301 301 302 302 303 303 304 304 304 304 304 304 304 303 303 303 303 303 303 303 303 303 303 302 303 302 302 302 302 302 302 301 301 300 300 300 299 299 299 299 299 299 299 298 298 297
300 300 300 300 299 299 300 300 300 299 299 299 299 299 299 300 300 300 300 300 299 299 299 299 298 298 298 298 298 299 299 299 299 299 299 299 300 300 299 299 299 299 298 298 298 298 298 299 299 299 299 299 299 300 300 300 299 300 301 301 301 302 302 303 303 303 303 303 304 304 303 303 303 303 303 303 303 302 302 302 302 302 301 301 301 301 301 301 301 300 300 300 299 299 298 298 298 298 298 298 297 297 296
300 300 300 300 299 299 299 299 299 298 298 298 298 298 299 299 299 299 299 299 299 298 298 298 297 297 297 298 298 298 298 298 299 298 298 299 299 299 299 298 298 298 298 298 297 298 298 298 298 298 298 298 299 299 299 299 299 299 299 300 300 301 301 302 302 303 303 303 303 304 303 303 303 302 302 302 302 302 302 301 301 301 301 301 301 301 301 301 300 300 300 299 299 298 298 297 297 297 297 297 296 296 294
300 299 299 299 299 299 299 298 297 297 297 297 298 298 298 298 298 298 298 298 298 298 298 297 297 296 297 297 297 297 298 298 298 298 298 298 298 299 298 298 298 298 298 298 298 297 298 298 298 297 297 297 298 298 298 298 298 298 298 299 299 300 301 301 302 302 302 302 303 303 303 303 302 302 301 301 301 301 301 300 300 300 300 300 300 300 300 300 300 299 299 298 298 298 297 297 296 296 296 296 295 295 293
299 299 299 299 299 298 298 297 296 296 297 297 297 298 298 298 298 298 297 297 297 297 297 296 296 296 296 296 296 297 297 297 297 297 298 298 298 298 298 299 298 298 298 298 298 298 298 297 297 297 297 297 297 297 297 297 297 297 298 298 299 299 300 300 301 301 302 302 302 302 302 302 302 301 301 301 300 300 300 300 300 300 300 300 299 299 299 299 299 298 298 297 297 296 296 296 295 295 295 295 294 293 292
299 298 298 298 298 297 296 296 296 296 296 297 297 297 297 297 297 297 297 296 296 296 296 295 295 295 295 296 296 296 296 297 297 297 297 298 298 298 298 298 299 298 298 298 298 298 298 298 297 297 297 297 297 297 297 297 297 297 297 297 298 298 298 299 300 300 301 301 301 301 301 301 301 300 301 300 300 300 300 299 299 299 299 299 299 298 298 298 298 298 297 296 295 295 295 295 294 294 294 293 293 292 291
298 298 297 297 296 296 296 296 296 296 296 296 296 296 296 296 296 296 296 296 296 296 295 295 295 294 295 295 296 296 296 297 297 297 297 298 298 298 298 298 298 298 298 298 297 298 298 298 297 297 297 297 297 297 297 296 296 296 296 297 297 297 298 298 298 299 300 300 300 300 300 301 300 300 299 299 299 299 299 299 299 298 298 298 298 298 298 297 297 296 296 295 294 294 294 294 294 293 293 293 293 292 291
298 298 297 297 296 296 295 295 295 296 296 296 296 296 296 296 295 295 295 295 295 295 295 295 294 294 295 295 296 296 296 297 297 297 297 297 297 298 298 298 298 298 298 298 297 298 298 298 298 297 297 297 297 297 297 296 296 296 296 296 296 297 297 298 298 298 299 299 299 299 300 300 300 299 299 299 298 299 298 298 298 298 298 298 298 297 297 297 296 295 295 294 294 294 294 293 293 293 293 293 293 292 292
297 297 296 296 296 296 295 295 295 295 295 295 295 295 295 295 295 294 295 295 295 295 295 294 294 295 295 296 296 296 296 297 297 297 297 297 297 298 298 298 298 298 298 298 298 298 298 297 298 297 297 297 297 297 297 297 297 296 296 296 297 298 298 298 298 298 298 299 299 299 299 299 299 299 299 298 298 298 299 298 298 298 297 297 297 297 297 296 296 295 295 294 294 294 293 293 293 293 293 293 293 292 292
296 296 296 295 295 295 295 295 295 295 295 295 294 294 295 295 294 294 295 295 295 295 295 295 295 295 295 296 296 296 296 297 297 297 297 297 297 297 297 298 298 298 298 298 298 298 298 298 297 297 297 297 297 297 296 296 296 296 296 297 297 298 298 298 298 298 298 299 299 299 299 299 299 299 299 298 298 298 298 298 298 298 298 298 297 297 297 296 296 295 295 294 294 293 294 293 293 293 293 293 293 292 292
296 295 295 295 295 295 294 294 294 294 294 294 294 294 294 294 294 294 295 295 295 295 295 295 295 295 295 295 296 296 296 296 296 297 297 297 297 297 297 298 298 298 298 298 298 297 297 297 297 297 296 297 297 297 297 296 296 296 296 296 297 298 298 298 298 299 299 299 299 299 299 299 299 298 298 297 297 297 298 298 298 298 298 298 297 297 297 297 296 296 295 294 294 293 293 293 293 294 294 293 293 292 292
295 295 295 295 295 294 294 293 293 293 293 294 294 294 294 294 294 294 294 295 295 295 295 295 295 295 295 295 295 295 295 296 296 296 297 297 297 297 297 297 298 298 298 298 297 296 296 296 297 296 296 296 297 297 297 297 297 296 296 297 297 297 298 298 299 299 298 299 298 298 299 299 299 298 297 297 297 298 298 298 298 298 298 298 298 297 297 297 296 296 295 294 293 293 293 293 293 293 293 293 293 292 292
294 294 294 294 294 294 293 293 293 293 293 293 293 294 294 294 294 294 294 294 294 294 295 295 295 295 295 295 295 295 295 295 296 296 297 297 297 297 297 297 297 297 297 298 297 297 297 297 296 296 296 296 296 297 297 297 297 297 297 297 297 297 298 298 298 298 298 298 298 298 299 299 298 298 298 297 298 298 298 298 298 298 298 298 297 298 297 297 297 297 295 294 293 293 293 294 294 294 294 293 293 292 292
294 294 294 294 294 294 293 293 293 293 293 293 293 293 293 293 294 295 295 295 295 295 295 295 295 295 295 295 295 295 295 295 296 296 296 296 297 297 297 297 297 297 297 297 297 297 297 297 296 296 296 296 296 297 297 297 297 297 297 297 297 298 298 298 298 298 298 298 298 298 298 298 298 297 297 297 298 298 298 298 298 298 298 298 298 298 298 297 297 297 296 295 294 294 294 294 293 293 293 293 293 293 292
294 294 293 294 293 293 292 292 293 293 293 293 293 293 293 293 293 294 295 295 295 295 295 295 295 295 295 295 295 295 295 296 296 296 296 296 296 296 297 297 297 297 297 297 297 297 297 297 297 297 297 297 297 297 297 297 297 297 297 297 297 297 297 297 298 298 298 298 297 298 298 298 298 298 297 297 298 298 298 298 298 298 298 297 298 298 298 297 297 297 296 296 295 295 294 293 293 293 293 293 293 293 292
294 294 294 293 293 292 292 292 293 293 294 294 294 294 294 293 293 294 294 294 294 295 295 295 295 295 295 295 295 295 295 295 295 294 296 296 296 297 297 297 297 297 297 297 297 297 297 297 297 297 297 297 297 297 296 296 296 296 297 297 297 297 297 298 297 297 297 297 297 298 298 298 298 298 298 298 298 297 298 298 298 298 297 297 297 297 297 297 297 297 296 296 296 296 295 294 294 293 293 292 292 292 291
293 293 293 293 292 292 292 292 293 293 293 293 293 294 294 294 294 294 294 294 294 294 294 295 295 295 295 295 295 294 295 295 295 295 296 296 296 297 297 297 297 296 296 297 297 297 297 297 297 297 297 297 297 296 296 296 296 296 296 297 297 297 297 297 297 296 297 297 297 297 298 297 298 298 298 298 298 298 298 297 297 297 297 297 297 296 296 296 296 297 296 296 295 295 294 294 293 292 292 292 291 291 291
293 293 293 292 292 292 292 293 293 293 293 293 294 294 294 294 294 294 293 293 293 293 293 294 294 294 294 294 294 294 294 294 294 294 295 296 296 296 297 297 296 296 296 296 296 296 296 296 296 297 296 296 296 296 296 296 295 296 296 296 296 297 297 297 297 297 297 297 297 297 297 296 296 296 297 297 297 297 297 297 297 297 297 296 296 295 295 295 295 295 295 295 295 295 294 294 293 293 292 292 291 291 291
293 293 293 292 292 293 293 293 293 293 293 293 293 294 294 294 294 294 293 293 293 293 294 294 293 293 294 294 294 294 294 294 295 295 295 296 296 296 296 296 296 296 296 296 296 296 296 296 296 296 296 295 295 296 295 295 295 295 295 295 296 296 296 296 296 297 297 297 296 296 296 296 296 296 296 296 296 296 296 296 296 296 296 295 295 295 294 294 293 293 294 295 295 295 294 294 294 293 292 292 291 291 291
293 293 292 292 292 292 293 293 293 293 293 293 293 293 294 294 294 293 293 293 293 294 294 294 293 294 294 294 294 293 294 294 294 295 295 295 295 295 295 296 297 296 296 296 296 296 296 296 295 295 295 295 295 295 295 295 294 293 294 294 295 296 295 296 296 296 296 296 296 296 295 295 295 295 295 295 295 295 295 295 295 295 295 294 294 294 293 293 293 293 293 294 294 295 295 294 294 294 293 292 292 291 291
293 292 292 292 292 292 293 293 293 293 293 293 293 293 293 293 293 293 292 293 293 294 293 294 293 294 293 293 293 293 293 293 294 294 295 295 295 296 296 296 297 296 296 296 296 296 296 295 295 295 295 295 295 295 295 295 294 293 294 294 295 294 295 295 296 296 296 295 295 295 295 295 295 295 294 294 294 294 294 294 294 294 293 293 293 293 292 292 292 292 292 293 293 294 294 294 294 293 293 292 292 291 290
292 292 292 292 292 292 292 292 293 293 293 293 293 293 293 292 292 293 293 293 293 293 293 293 293 293 293 293 293 293 293 293 293 294 295 295 295 296 296 296 296 296 296 296 295 295 295 294 294 295 295 294 295 295 294 294 294 294 294 294 294 294 295 295 296 296 295 294 294 294 294 294 294 294 294 294 293 293 293 293 293 292 292 292 292 292 291 291 291 291 291 292 292 293 293 293 293 292 292 292 291 291 291
292 292 292 291 291 292 292 292 293 293 294 294 293 293 292 292 292 293 293 293 293 293 293 293 293 292 292 293 292 292 293 293 293 294 294 295 295 295 296 296 296 296 295 295 295 295 294 294 294 294 294 294 294 294 294 294 294 294 294 294 294 294 295 295 295 295 294 294 294 293 293 293 293 293 293 292 292 292 292 292 291 291 291 291 291 291 291 291 291 291 291 291 291 292 292 292 292 291 291 291 291 291 290
292 292 291 291 291 292 292 292 293 294 294 293 293 292 292 292 292 293 293 293 293 292 292 292 292 292 292 292 292 291 292 293 293 292 293 293 294 295 296 296 296 295 295 295 295 295 294 294 294 293 294 294 294 294 294 294 294 294 294 293 294 294 294 294 295 294 294 294 293 293 293 293 292 292 292 291 291 291 291 291 291 291 291 291 291 291 291 290 290 290 290 291 291 290 291 291 291 291 290 290 290 290 290
292 291 291 291 292 292 292 293 293 293 293 293 292 292 292 292 292 292 292 292 292 292 292 291 291 291 291 291 291 291 292 292 292 292 292 293 294 295 295 295 295 294 294 294 294 294 293 293 293 293 293 294 294 294 294 294 294 294 294 293 293 294 294 294 294 294 293 293 293 292 292 292 291 291 291 290 290 290 290 290 290 291 290 290 290 291 291 290 290 290 290 290 290 290 290 291 291 290 290 290 290 290 290
291 291 291 291 292 292 293 293 293 293 292 291 291 291 292 292 292 292 292 292 292 291 291 290 290 290 291 291 291 292 292 292 292 292 292 293 294 295 295 294 294 294 295 295 294 293 293 293 293 293 293 293 294 294 294 294 293 293 293 293 293 293 293 294 294 293 293 293 293 292 291 291 290 290 290 290 290 290 290 290 290 290 290 290 290 291 291 291 291 291 291 290 290 290 290 291 291 291 291 290 290 290 290
291 291 291 291 292 292 293 293 293 292 291 291 291 291 292 292 292 292 292 292 291 291 290 290 289 290 291 291 291 291 291 291 291 292 292 293 294 294 294 294 294 294 294 294 294 293 293 293 293 293 293 293 294 294 293 293 293 293 293 293 293 292 293 293 293 293 293 293 292 292 291 290 290 290 290 290 290 290 290 290 290 290 290 290 290 290 291 291 291 291 291 291 291 290 291 291 291 291 291 290 290 290 290
291 290 290 291 292 292 292 292 292 291 291 291 291 291 291 291 291 292 292 291 291 290 290 290 290 290 290 291 291 291 290 290 291 292 293 293 293 294 294 294 294 294 294 293 293 292 292 292 292 293 293 293 293 293 293 293 293 292 292 292 292 292 292 292 292 292 292 292 291 291 291 290 290 290 290 290 290 290 290 290 290 290 290 290 290 290 290 291 291 291 291 291 291 291 291 291 290 290 290 290 289 289 289
290 290 290 291 291 291 291 291 291 291 291 291 291 291 291 291 291 291 291 291 290 290 290 290 289 289 289 290 290 291 290 290 291 292 293 293 293 293 294 294 294 294 293 293 293 292 292 292 292 292 293 293 293 293 293 293 292 292 292 292 292 292 292 292 291 292 291 291 291 290 290 290 289 289 289 289 290 290 289 289 289 289 289 289 289 289 290 290 290 290 290 290 290 290 290 290 290 290 289 289 289 289 288
290 290 290 290 291 290 290 290 290 290 291 291 291 291 291 291 291 290 290 290 290 290 290 290 289 289 289 290 290 291 290 290 291 291 292 293 293 293 293 293 293 293 293 293 293 292 292 292 292 292 292 293 293 293 292 292 292 291 291 291 292 292 292 291 291 291 291 291 291 290 290 290 290 290 289 289 289 289 289 289 289 288 288 289 289 289 290 290 290 290 289 289 289 289 289 289 289 289 289 289 288 288 288
290 290 290 290 290 290 290 290 290 291 291 291 291 291 291 290 290 290 290 290 290 290 290 290 290 290 289 289 289 290 290 290 290 291 292 292 292 292 292 292 292 292 292 292 292 293 292 292 292 292 292 292 292 292 292 291 291 291 291 291 291 291 291 290 290 290 290 290 290 290 290 290 290 289 289 289 289 289 288 288 288 287 288 288 289 289 289 289 289 289 288 288 288 288 288 289 289 289 289 289 288 288 288
289 290 290 290 289 289 289 290 290 291 291 291 291 290 289 289 289 289 290 290 290 290 290 290 291 290 289 289 289 290 289 290 290 291 291 292 292 292 291 291 292 292 292 293 292 292 292 292 292 292 292 292 291 291 291 291 291 291 291 291 291 290 290 289 289 289 289 289 289 289 290 289 289 289 289 289 288 288 288 287 287 286 287 288 289 290 289 289 288 288 288 288 288 288 288 288 288 288 288 288 288 288 288
289 290 290 289 289 289 289 290 290 290 290 290 290 289 289 289 289 289 289 289 289 289 289 290 290 290 289 289 289 289 289 289 290 291 291 291 291 291 291 291 292 292 292 292 292 291 291 291 291 291 291 291 291 291 291 291 291 291 291 291 290 289 289 289 289 290 290 289 289 289 289 288 288 289 289 289 288 288 288 287 286 286 286 287 289 290 289 288 288 289 289 289 288 288 289 289 288 288 288 288 288 287 287
290 290 289 289 289 289 290 290 290 290 290 289 289 289 289 290 290 290 289 289 289 289 289 289 289 289 289 289 289 288 288 289 290 291 291 291 291 290 291 291 292 292 292 292 291 291 291 290 290 291 291 291 291 291 291 291 291 290 290 289 289 289 289 289 290 290 290 289 289 288 288 288 288 288 288 288 288 288 288 287 287 286 286 287 288 289 288 288 288 289 289 289 289 289 289 289 289 288 288 287 287 287 286
290 290 290 290 290 290 290 290 290 290 289 289 289 290 291 291 291 291 290 290 290 290 290 290 290 289 289 289 288 287 288 289 290 290 290 290 290 290 291 291 291 291 291 290 290 290 290 290 290 290 291 291 291 291 291 290 290 289 289 289 289 289 290 290 289 289 289 289 289 288 288 287 287 287 287 287 287 288 288 287 287 287 286 287 287 287 285 285 286 287 289 289 289 289 289 289 288 288 288 287 286 286 285
290 290 290 290 290 290 290 290 289 289 289 290 291 292 293 293 293 292 291 290 290 290 290 290 290 290 290 289 288 287 289 290 290 290 290 290 290 290 291 291 291 290 290 289 289 289 289 290 290 290 290 291 291 291 290 290 289 289 289 289 289 289 289 289 289 289 289 289 289 289 288 288 287 287 287 286 286 286 286 287 287 287 286 287 287 286 285 285 286 287 288 288 289 289 289 288 288 287 287 286 286 285 285
289 290 290 289 290 290 290 290 289 289 290 292 293 294 294 294 293 292 291 290 290 289 290 290 290 290 290 289 288 287 289 290 290 290 290 290 290 291 291 290 290 289 289 289 289 289 289 289 290 290 290 290 290 290 290 289 289 289 289 289 289 289 289 289 289 289 290 289 289 289 288 288 288 287 287 286 285 285 285 285 286 286 286 286 286 285 285 285 286 287 288 288 288 289 288 288 287 286 286 286 285 284 284
289 289 289 289 290 290 290 290 290 289 291 293 294 296 295 294 292 291 290 290 289 289 289 290 290 290 290 289 287 287 288 289 290 290 290 290 290 290 290 290 289 289 289 289 289 289 289 290 290 290 290 290 290 290 289 289 289 288 288 289 289 289 289 289 290 290 290 290 289 289 289 288 288 287 287 286 285 285 284 285 285 285 286 285 285 284 284 285 286 287 288 288 288 287 288 287 286 285 285 285 284 284 283
289 289 289 290 290 290 290 290 290 291 293 295 296 295 294 292 291 290 289 289 289 289 290 290 290 291 289 287 286 287 288 289 289 289 290 290 290 289 289 289 289 289 289 288 288 288 289 290 290 290 290 290 290 289 289 288 288 288 288 288 289 289 289 289 290 290 290 290 290 289 289 289 288 287 287 287 286 285 285 285 285 285 285 285 284 283 284 285 286 287 288 288 287 286 286 286 285 284 284 284 283 283 282
289 289 290 290 290 290 290 290 291 293 295 296 296 295 293 292 291 290 289 289 289 290 290 291 291 290 288 287 287 288 288 288 289 289 289 289 289 289 288 288 289 288 288 288 288 288 289 289 290 290 289 289 289 289 288 287 287 288 288 288 288 289 289 289 290 290 289 289 289 289 289 289 289 288 288 287 286 285 285 285 286 285 285 285 284 283 284 285 286 287 287 287 286 284 284 284 284 283 283 282 282 282 281
290 290 291 291 291 290 291 292 294 296 296 296 295 294 292 291 290 289 289 290 291 291 291 290 289 288 287 287 287 288 288 288 288 288 288 289 289 288 288 288 288 288 288 288 288 288 288 289 289 289 288 288 288 288 287 287 287 288 288 289 289 289 289 289 289 289 289 289 289 290 289 289 289 289 288 288 287 286 285 285 285 284 284 284 284 283 284 285 286 287 287 286 284 282 283 283 283 282 282 281 281 281 281
290 291 291 291 291 291 293 294 295 296 295 294 293 292 290 289 288 288 289 290 290 290 289 287 286 286 286 287 287 287 288 287 287 287 288 288 288 289 288 288 288 288 287 287 288 288 288 288 288 288 288 287 287 287 287 287 287 288 289 289 289 289 289 289 289 289 289 289 289 289 289 289 289 289 288 288 287 286 285 284 284 284 284 283 283 283 284 285 286 287 286 285 283 281 282 282 282 282 281 281 281 281 280
291 291 291 291 291 293 293 294 293 293 292 291 290 289 288 287 287 287 288 289 288 286 286 285 285 286 286 286 286 287 287 287 287 287 287 288 288 289 288 288 288 288 287 288 288 288 288 288 288 287 287 287 287 287 287 287 288 288 289 289 289 289 289 289 289 289 289 289 288 288 288 288 289 288 288 288 287 285 284 283 282 283 283 283 282 283 284 285 286 286 286 284 282 280 281 281 282 281 281 281 281 281 280
291 291 291 292 292 293 292 292 292 291 290 290 289 288 287 287 287 287 287 287 287 286 286 286 286 286 286 286 286 286 286 287 287 287 287 287 288 288 288 288 288 288 288 288 288 288 288 287 287 287 286 286 286 287 287 288 288 288 289 289 289 289 289 289 289 289 288 288 288 288 288 287 288 287 288 287 286 285 283 282 282 282 282 282 282 283 284 285 285 286 285 284 281 279 281 281 281 281 281 281 281 280 280
Wind_Speed
13 14 15 15 16 17 17 17 17 17 17 17 16 16 16 15 15 14 13 11 9 7 6 6 7 7 6 6 5 4 4 4 3 3 3 3 3 3 3 4 4 3 3 3 2 1 1 1 1 2 2 3 4 4 5 7 9 9 9 10 10 8 9 9 9 9 10 10 9 7 7 6 6 6 7 7 8 7 7 6 5 5 5 5 6 7 7 7 7 8 7 6 6 6 7 7 7 7 7 6 6 6 6
14 15 15 16 17 17 17 17 17 18 18 18 17 16 16 16 15 14 13 11 10 8 8 8 8 7 7 7 7 6 5 4 3 2 2 2 2 3 3 3 2 2 3 3 2 1 1 1 2 2 3 4 5 5 7 9 10 10 9 9 8 7 8 8 8 7 8 8 7 6 6 5 5 5 6 6 7 7 8 7 6 6 6 6 7 8 9 9 9 9 8 7 6 5 5 6 7 7 6 6 5 6 6
15 16 17 17 17 17 17 17 17 17 17 17 15 14 15 15 14 13 12 11 10 9 9 8 7 6 6 6 6 6 5 4 4 3 2 2 2 2 2 1 2 3 3 3 3 3 4 4 4 5 5 5 6 6 8 10 11 11 10 9 8 9 9 9 9 8 9 8 8 8 8 7 6 6 6 7 8 8 9 8 7 6 6 6 7 7 8 8 9 9 9 8 6 5 4 4 5 6 6 5 5 7 8
15 15 16 16 17 17 17 16 16 16 16 15 14 13 14 14 13 12 10 9 9 9 10 9 8 7 5 6 6 6 6 6 5 5 4 3 3 2 1 2 3 4 4 4 5 5 5 5 5 5 5 6 6 7 8 10 12 13 12 11 11 12 12 11 11 11 11 10 9 9 9 8 7 8 7 7 8 8 8 8 7 6 6 6 7 7 9 9 8 9 10 9 7 5 4 4 4 4 5 5 5 7 8
15 15 15 16 16 16 16 16 16 16 15 14 13 13 12 12 12 11 10 10 10 11 11 11 10 9 8 7 7 7 7 8 7 5 4 3 3 3 4 4 4 5 5 5 5 5 5 5 5 5 6 7 7 8 8 9 11 13 14 13 13 13 13 12 11 12 12 11 10 9 9 9 8 8 7 7 7 7 8 8 7 7 6 6 7 7 8 8 8 7 8 9 8 7 5 4 4 3 4 4 4 7 7
14 14 14 15 15 15 15 15 14 13 12 12 11 12 12 12 12 12 11 11 11 12 12 12 12 11 10 9 8 9 9 9 7 4 4 5 6 7 7 7 7 7 7 6 6 5 5 5 5 5 7 8 9 8 8 9 10 13 14 14 13 14 13 12 11 13 13 12 10 9 10 10 10 9 7 7 6 6 7 7 8 7 7 7 7 7 8 8 7 7 7 7 7 6 6 5 5 4 4 4 4 6 6
13 13 14 14 14 15 14 14 12 12 11 11 10 11 11 11 11 12 12 12 12 12 12 12 12 11 11 11 10 9 8 7 6 6 8 9 10 10 10 9 9 9 8 7 7 6 5 5 5 6 7 8 8 8 9 9 9 10 12 12 13 14 14 12 12 13 13 13 11 9 10 11 11 11 8 7 6 6 6 7 7 7 6 6 6 7 8 8 8 8 7 7 6 6 6 6 6 5 5 5 4 5 5
13 13 14 14 14 13 13 12 11 11 12 11 10 10 10 11 11 11 11 11 12 13 12 12 11 11 11 10 9 7 6 7 8 9 9 9 9 9 9 9 8 8 8 7 7 6 6 5 5 5 6 7 7 8 8 8 8 8 9 11 13 14 13 13 12 13 14 13 12 10 11 12 12 11 9 8 7 6 7 7 7 7 6 6 6 6 7 7 7 7 8 8 8 7 6 6 7 5 6 5 4 4 4
13 13 14 13 13 12 12 12 13 13 14 13 12 11 10 10 9 10 10 11 12 13 12 11 11 10 9 8 8 8 8 9 10 9 9 8 7 7 6 6 5 6 5 5 5 5 6 6 6 7 7 7 7 7 7 7 7 7 7 9 11 13 13 13 13 12 13 13 13 12 11 11 11 10 10 10 9 7 8 7 7 7 6 6 6 6 5 6 6 7 8 9 9 8 6 6 7 5 5 5 5 4 4
12 13 13 13 12 13 13 14 15 15 14 14 13 12 10 10 11 11 12 13 13 13 12 11 10 9 9 8 8 10 11 12 11 11 9 8 7 7 6 6 6 6 6 6 6 6 6 6 7 7 7 6 6 6 6 6 6 6 6 8 11 13 13 13 12 12 12 12 12 12 10 10 11 11 11 11 10 9 8 7 7 7 6 6 5 5 5 5 6 7 8 8 9 9 7 6 7 7 6 6 6 5 5
12 12 12 13 13 14 14 15 15 15 14 14 13 12 11 11 11 12 13 14 15 14 13 12 11 10 10 10 11 12 11 12 12 11 10 9 9 8 8 8 8 7 7 6 6 6 6 6 5 5 5 5 5 5 5 5 5 5 6 7 8 11 12 12 12 12 12 12 11 11 10 10 10 11 11 11 11 9 8 7 7 6 6 6 5 5 6 6 6 6 8 8 8 9 7 6 6 7 7 6 6 7 6
13 13 13 13 14 15 15 14 14 14 15 14 13 12 13 13 13 13 15 16 15 14 13 13 13 13 12 12 11 12 12 12 12 11 10 9 9 9 10 10 10 9 8 7 6 6 5 4 4 4 4 4 4 5 5 4 5 5 6 6 6 9 11 11 11 10 11 11 11 11 11 10 10 10 10 10 10 9 8 7 7 6 6 6 6 6 6 6 6 6 6 7 8 8 7 6 6 6 7 7 6 7 7
13 14 13 14 15 15 15 15 14 14 14 14 13 13 13 14 15 16 16 16 16 14 14 14 14 13 12 11 10 10 10 11 12 12 10 9 9 8 9 10 10 10 9 8 7 6 5 5 5 5 5 5 4 4 5 5 5 6 6 6 6 6 9 10 10 9 10 10 10 10 10 10 9 9 9 10 9 8 8 7 7 6 6 6 5 6 6 6 6 5 6 6 7 7 7 6 5 5 6 6 6 6 6
14 14 14 15 15 16 15 15 14 14 14 13 13 12 13 14 15 16 16 16 15 15 15 14 14 14 14 13 11 11 11 11 11 11 11 10 8 8 8 9 10 10 9 7 7 6 6 6 6 6 5 5 5 5 5 6 6 6 6 6 5 6 7 8 9 9 9 9 9 9 9 9 8 7 8 8 8 8 7 7 6 6 5 5 5 5 5 5 5 5 5 6 6 7 6 5 4 4 5 6 6 5 5
14 15 15 15 15 15 15 14 14 13 13 13 12 12 13 13 14 14 15 15 15 15 14 14 14 14 14 14 13 12 12 12 11 11 11 10 9 8 9 8 8 8 7 7 6 6 6 6 5 5 5 5 5 5 6 6 7 6 6 6 6 5 5 6 7 8 8 8 8 8 8 8 7 6 7 8 8 7 6 6 6 5 5 4 4 4 4 5 6 6 6 6 6 6 5 5 4 4 4 4 5 4 4
14 15 15 15 15 15 15 15 14 13 13 12 12 12 12 13 13 13 14 14 14 14 14 14 14 15 14 13 13 12 13 13 12 11 11 11 10 10 9 8 7 7 7 7 6 6 6 5 5 5 5 5 6 6 6 6 7 8 7 6 6 5 5 5 5 6 7 7 7 7 7 7 7 6 6 6 7 7 7 7 6 5 4 4 4 4 4 5 5 6 6 6 6 6 5 5 5 5 4 4 4 4 4
14 14 15 15 15 15 15 16 15 14 13 12 12 12 13 12 12 12 13 13 13 14 14 14 15 15 14 13 12 12 13 12 12 12 12 11 10 10 9 9 9 9 9 8 7 6 5 5 5 5 5 5 6 5 5 6 7 8 7 6 6 5 5 5 5 4 5 6 6 6 6 6 6 6 6 6 6 6 6 6 6 5 4 3 4 4 4 5 5 5 5 5 6 5 5 5 5 5 4 3 3 4 4
14 14 14 14 14 15 16 16 15 14 13 13 13 13 13 13 12 12 12 12 13 14 14 15 15 15 13 13 12 12 13 13 13 13 12 11 11 10 9 9 9 10 10 10 8 7 7 6 5 5 6 6 6 5 5 6 6 7 6 6 5 5 5 4 4 4 4 4 5 6 6 5 6 6 5 5 5 6 5 5 5 4 4 4 4 4 4 4 4 4 5 5 5 5 5 5 6 6 4 4 4 4 4
13 12 12 12 13 14 14 14 14 14 14 14 14 14 14 13 12 12 12 12 13 14 14 15 15 14 13 13 12 12 13 13 13 13 12 12 11 11 10 9 9 9 10 10 9 9 8 8 7 7 7 6 6 6 6 6 6 6 6 5 5 4 4 4 4 3 3 3 4 5 6 6 6 6 6 6 6 6 6 5 5 5 5 5 5 4 4 4 4 4 4 4 4 5 5 5 6 6 5 4 4 5 5
12 11 11 11 11 11 12 12 13 13 14 15 15 15 14 13 12 12 12 12 13 13 14 15 15 14 13 13 12 12 12 12 13 13 13 12 12 11 10 10 10 10 10 10 9 8 8 8 8 8 7 7 7 7 7 7 6 6 5 5 4 4 4 3 3 3 3 3 4 4 6 6 6 6 6 6 7 7 6 5 5 5 5 5 5 5 5 5 5 4 4 4 4 4 4 4 5 6 6 5 5 5 4
11 10 10 10 10 9 10 11 12 13 14 15 15 15 15 13 13 12 12 12 12 13 14 14 15 14 13 12 12 12 12 12 12 12 12 12 12 11 11 10 10 10 10 9 8 8 8 8 8 7 7 7 6 6 6 6 6 5 5 4 4 4 4 4 3 3 3 3 4 4 6 7 6 6 6 6 6 6 5 5 5 5 5 5 5 5 6 6 6 4 4 4 4 4 4 4 4 5 5 5 5 4 4
10 10 10 10 10 10 10 11 12 14 15 15 15 15 14 13 12 12 12 12 12 12 13 14 15 14 13 12 11 11 11 12 12 12 12 12 12 11 10 10 10 9 9 8 7 8 8 8 8 7 6 6 5 5 5 5 5 5 5 5 5 5 4 4 4 4 4 4 5 5 7 7 6 5 5 6 5 5 4 4 4 4 5 5 5 5 5 6 5 4 3 3 3 4 4 4 4 4 4 4 4 3 3
9 9 10 10 11 10 10 11 13 14 14 14 14 13 13 12 12 12 11 10 10 11 13 14 15 14 12 11 11 11 11 11 12 12 12 11 11 10 10 9 9 8 7 7 7 7 7 7 7 6 5 5 5 4 4 4 4 4 5 5 5 5 4 4 4 4 5 5 5 5 6 6 5 5 5 5 5 5 5 4 4 4 5 5 5 5 5 5 5 4 3 3 3 3 3 3 3 3 3 3 3 3 3
10 10 10 10 11 11 11 11 13 14 14 13 12 12 13 13 12 12 11 11 11 12 13 14 14 14 12 11 10 10 11 11 11 11 11 11 10 9 9 8 8 7 7 6 6 6 6 5 5 5 4 4 4 4 4 4 4 4 4 4 4 4 4 4 4 5 5 5 5 5 5 5 5 4 5 5 5 4 4 4 5 5 5 4 4 4 4 4 4 3 2 2 2 2 2 2 2 2 1 2 2 2 2
10 10 10 10 10 11 11 12 13 14 14 13 13 13 13 13 12 12 12 12 13 13 14 14 14 13 11 11 10 10 10 10 10 11 11 10 9 9 9 8 8 7 6 5 5 5 4 4 4 3 3 3 3 3 4 4 4 4 4 4 3 3 4 4 4 4 4 4 4 5 5 5 5 5 5 5 5 4 4 5 5 5 4 4 4 4 3 3 3 3 2 1 1 1 1 1 1 1 1 1 1 1 1
10 10 9 9 10 10 11 11 12 13 13 13 13 13 13 12 12 12 12 13 13 13 13 14 13 13 11 10 10 10 9 9 10 10 10 10 9 8 8 7 7 6 6 5 4 4 3 3 3 2 2 1 2 3 3 4 4 4 4 4 3 3 3 3 3 3 3 4 4 5 5 5 5 5 5 5 5 5 5 5 5 5 4 4 4 4 3 3 2 2 2 1 1 0 1 1 1 1 0 0 0 0 0
10 9 8 8 9 10 11 11 12 12 12 12 12 12 12 12 12 12 12 13 13 13 13 13 13 12 11 10 10 9 9 9 9 10 10 9 8 7 7 6 6 6 6 5 4 3 3 3 3 2 2 1 2 2 3 3 4 4 4 4 3 3 3 2 3 3 3 4 5 5 5 5 5 5 6 5 5 5 5 5 5 5 5 4 4 4 3 3 2 2 2 2 1 1 1 1 1 1 1 1 1 1 1
11 9 8 8 9 10 11 11 11 12 12 12 12 12 12 12 12 12 12 12 12 12 12 12 12 11 10 10 9 9 8 8 9 9 9 9 8 7 6 6 5 5 5 4 4 4 4 4 3 3 3 3 3 3 3 3 3 3 3 3 3 3 2 2 2 2 3 4 5 5 5 5 5 5 6 6 5 5 5 6 6 5 5 5 5 4 4 3 3 3 2 2 2 2 2 2 2 1 1 2 2 2 1
11 10 10 10 10 10 10 11 11 12 12 12 12 12 12 12 11 11 11 11 12 12 13 13 12 11 10 9 8 8 8 8 8 8 8 8 8 7 6 5 4 4 4 4 4 4 4 4 4 3 4 4 4 4 3 3 3 3 2 2 2 2 2 2 2 3 3 4 4 5 5 5 5 5 6 6 6 5 6 6 6 6 6 6 5 5 5 5 4 4 3 3 3 3 3 2 2 2 2 2 2 2 2
11 11 11 11 11 10 10 10 11 11 12 12 12 12 12 11 10 9 10 10 11 11 12 12 11 10 9 8 8 7 7 7 8 8 8 7 7 6 5 5 4 3 3 3 3 3 3 3 3 3 4 4 4 4 3 3 3 2 2 2 2 2 2 2 3 3 3 4 4 5 5 6 6 5 5 5 5 6 6 6 6 6 6 6 5 5 6 6 6 5 4 3 3 4 3 3 2 2 2 2 2 2 2
11 11 11 11 11 11 10 10 10 11 11 11 11 12 12 11 10 9 9 9 10 10 11 11 11 10 9 8 8 7 7 7 7 6 6 7 6 6 5 4 4 3 2 2 1 1 1 1 2 2 3 4 4 3 4 4 4 3 3 3 3 3 3 3 3 3 3 3 4 5 5 5 5 5 5 5 5 6 6 6 7 7 7 6 6 5 6 6 6 6 4 4 4 4 4 3 3 3 3 3 3 3 3
11 11 11 11 11 11 11 11 11 11 10 10 11 11 11 11 10 10 9 9 10 10 9 9 9 8 8 7 6 6 5 5 6 6 6 5 5 5 4 3 3 2 2 1 1 0 1 2 2 3 3 3 4 4 5 5 5 4 4 4 4 3 3 3 3 3 3 4 4 5 5 5 5 5 5 6 6 6 7 7 7 7 7 7 7 6 6 6 6 6 5 4 4 4 3 3 3 3 3 3 3 3 3
12 12 11 11 11 12 12 12 12 11 11 11 11 11 11 11 11 10 10 10 9 9 8 7 7 7 6 6 5 5 5 5 5 5 5 5 4 4 3 3 2 2 1 0 0 1 2 2 3 4 4 4 4 4 5 5 6 5 5 5 4 4 3 3 3 3 4 4 5 5 5 5 5 6 6 6 6 7 7 8 8 8 8 8 8 7 6 6 6 5 4 4 4 4 4 4 4 4 4 4 5 5 4
12 12 12 11 11 11 12 12 12 12 12 11 11 11 11 11 11 11 10 10 9 9 8 8 7 7 6 6 5 5 4 4 5 5 5 5 4 3 3 2 2 2 1 0 1 2 2 3 3 4 4 4 5 5 5 5 5 5 5 5 4 4 4 3 3 3 4 5 5 5 5 5 5 5 6 6 6 7 7 8 8 8 8 8 7 7 7 7 6 5 4 4 4 4 4 4 4 5 5 6 6 5 5
12 12 12 11 11 11 11 11 11 12 11 11 11 11 10 10 11 11 10 10 9 9 8 8 7 7 6 6 5 5 4 4 4 5 5 4 3 3 3 2 2 2 1 0 1 2 2 3 3 4 4 5 5 5 5 5 5 4 4 4 4 3 3 4 4 4 4 5 5 5 5 5 5 5 5 6 6 7 7 7 7 7 7 7 7 6 6 6 6 5 4 5 5 4 5 5 5 5 6 7 7 5 5
13 12 12 12 12 11 11 11 11 11 10 10 10 10 9 10 10 10 10 10 9 9 8 7 7 6 6 6 5 5 4 4 4 4 4 3 3 3 2 2 2 1 0 1 1 2 3 3 4 4 4 4 4 5 5 5 4 4 4 4 3 3 4 4 4 4 4 4 5 5 5 5 5 5 5 5 6 7 7 7 7 7 7 7 6 6 5 5 5 4 5 5 6 5 5 5 5 6 7 7 8 7 7
14 13 13 13 13 12 12 11 11 11 10 10 10 9 9 9 9 10 10 9 9 8 8 7 6 6 6 5 5 5 5 4 4 4 4 3 3 2 2 2 2 1 1 1 2 2 3 3 4 4 4 4 4 5 5 5 4 4 4 3 3 4 4 4 4 4 4 4 4 4 4 4 4 4 5 5 6 6 6 6 6 6 6 6 6 6 5 4 4 4 5 6 6 6 5 5 5 6 7 8 9 9 8
14 14 13 13 13 13 12 12 11 11 11 11 10 10 9 8 8 9 9 9 9 8 7 6 6 5 5 5 4 4 4 4 3 3 3 3 2 2 2 2 2 2 2 2 2 2 3 3 4 4 4 4 4 4 4 4 4 3 3 3 3 4 4 3 3 3 3 3 3 3 4 4 4 4 4 5 5 5 5 6 6 5 5 5 5 5 4 4 4 4 5 6 7 7 6 5 6 7 7 8 9 10 9
13 13 13 13 12 12 12 11 11 11 11 10 10 10 9 9 9 9 9 8 8 7 7 6 5 5 5 4 4 3 3 3 3 2 2 2 2 2 2 2 2 2 2 2 2 2 3 3 4 4 4 4 4 4 4 4 3 3 3 3 3 3 3 3 3 3 3 3 3 3 3 4 4 4 4 4 4 5 5 5 5 4 5 5 5 4 4 4 4 5 5 6 6 7 7 6 6 6 7 8 9 10 10
12 12 11 11 11 11 10 10 10 10 10 10 10 10 9 9 9 8 8 8 7 7 6 5 4 4 4 4 4 3 3 3 2 2 2 2 2 3 3 3 2 2 2 2 2 2 3 3 3 4 3 3 4 4 4 3 3 3 3 2 3 3 3 3 3 3 2 2 2 3 3 3 4 4 4 4 4 4 4 4 4 4 4 4 4 4 3 4 4 4 5 5 5 6 7 7 7 6 7 7 8 9 10
12 11 10 10 10 10 10 10 10 10 10 10 9 9 9 9 9 8 8 7 7 6 5 4 4 4 4 4 4 4 3 3 2 2 2 2 3 3 3 3 3 2 2 2 2 3 3 3 3 3 3 3 3 4 4 3 3 3 3 2 3 3 3 3 2 3 2 2 2 2 3 3 3 3 4 4 4 4 4 4 3 3 4 4 4 3 3 3 3 3 4 4 5 5 6 7 7 7 7 7 8 8 9
11 11 10 10 10 10 10 10 10 10 10 10 9 9 9 8 8 8 7 7 6 6 5 4 4 4 4 4 4 4 3 2 2 2 2 3 3 3 3 3 2 2 2 3 3 3 4 4 3 3 3 3 3 4 4 4 3 3 3 3 3 3 3 3 3 3 2 2 2 2 2 3 3 3 3 3 3 3 3 3 3 3 3 3 3 3 3 3 3 3 3 3 4 5 5 6 6 7 7 7 8 8 8
12 11 11 10 10 10 10 9 9 9 10 9 9 9 8 8 7 7 7 6 6 5 4 4 4 4 4 4 4 4 3 2 2 2 3 3 3 3 3 3 2 2 3 3 4 4 4 4 4 3 3 4 4 4 4 4 4 3 3 3 3 3 3 3 3 3 3 3 3 3 3 3 3 4 4 4 4 4 4 3 3 2 2 2 2 2 3 3 4 4 3 3 4 4 5 5 6 6 6 7 7 8 8
12 11 10 10 10 9 9 9 9 9 9 9 9 8 7 7 6 6 6 5 5 5 5 4 4 4 4 5 5 4 3 3 3 3 3 3 3 3 3 3 3 3 4 4 4 5 4 4 4 3 4 4 4 4 4 4 4 4 4 3 3 3 3 3 4 4 3 3 3 4 4 3 3 4 4 4 4 4 4 4 3 3 2 2 2 2 2 3 3 4 4 4 4 4 5 5 5 6 6 6 7 7 8
12 11 10 10 10 10 9 9 9 9 9 8 7 7 6 6 5 5 5 5 5 5 5 5 5 5 5 5 5 4 3 3 3 3 3 3 3 2 3 3 4 4 4 5 5 5 4 4 3 3 4 4 4 4 5 5 5 4 4 4 4 3 3 3 4 4 4 3 4 4 4 4 4 3 4 5 5 5 4 4 4 3 3 3 2 2 2 3 3 3 4 4 4 4 5 5 6 6 6 7 7 7 7
12 11 11 10 10 10 9 9 9 9 8 7 6 5 5 4 4 4 5 5 6 6 6 6 6 6 6 5 5 4 3 3 3 3 3 3 2 2 3 4 5 5 5 5 5 4 4 4 3 3 4 4 4 5 5 5 5 4 4 4 4 4 4 4 4 4 4 4 4 4 5 5 4 4 4 4 5 5 5 4 4 4 4 3 3 2 2 3 3 3 4 4 4 4 5 6 6 6 7 7 7 7 7
13 12 12 11 10 10 9 9 9 8 7 6 6 5 4 3 4 4 5 6 6 6 6 6 6 6 5 5 5 4 3 3 4 3 3 2 2 3 4 5 6 6 6 5 5 4 4 4 4 4 4 4 4 5 5 5 5 4 4 4 4 4 4 4 4 4 4 4 4 4 5 5 5 4 4 4 4 4 4 4 4 4 4 4 4 3 3 3 3 3 4 4 4 4 5 6 6 6 7 7 8 8 8
13 12 12 11 11 10 10 9 9 8 7 6 5 5 4 3 4 5 6 6 5 5 6 6 6 5 5 5 5 4 3 3 4 3 3 2 2 3 5 6 6 6 5 5 4 4 4 4 4 4 4 4 4 5 5 4 4 4 4 4 4 4 4 4 4 4 4 4 4 4 4 5 5 5 5 5 4 4 4 4 4 4 5 5 4 3 3 3 3 4 4 4 4 5 5 6 6 6 7 7 8 9 9
12 12 13 12 12 11 10 9 8 7 7 6 5 5 4 4 5 7 7 6 6 6 7 7 7 6 6 5 4 3 3 3 3 3 2 2 3 4 6 6 6 6 5 4 4 3 3 4 4 4 4 4 4 4 4 4 4 4 4 4 4 4 4 4 4 4 4 4 4 4 4 4 5 5 5 5 5 4 4 4 4 4 5 5 4 3 3 3 4 4 4 4 5 5 5 6 6 6 7 7 7 8 9
12 12 13 12 11 10 10 9 8 8 7 6 5 5 5 6 8 9 8 8 8 8 8 8 8 7 7 5 4 3 4 4 3 3 2 3 4 6 6 6 6 5 4 4 4 4 4 4 4 4 4 4 4 4 4 4 4 4 4 4 5 5 5 5 5 5 5 4 4 4 4 4 4 4 5 5 5 5 4 4 4 4 4 4 3 3 4 5 6 6 6 5 5 5 5 5 6 6 6 6 7 7 7
12 11 11 11 10 10 10 9 9 8 7 7 6 6 8 9 10 10 9 8 8 8 8 8 8 7 7 5 4 4 4 4 3 3 3 5 6 7 7 6 5 4 4 4 4 4 4 4 4 4 4 4 4 4 4 4 4 4 4 4 5 5 6 6 6 6 5 5 4 4 4 4 4 4 4 4 5 5 5 5 4 4 4 3 3 4 6 7 8 9 8 7 6 6 5 5 5 5 5 5 6 6 6
11 10 10 10 10 10 10 10 9 8 7 8 8 9 10 11 10 9 9 8 8 8 8 8 7 7 7 5 4 4 4 3 3 3 4 6 7 7 6 5 5 4 4 4 4 4 4 5 5 4 4 4 4 4 5 5 5 4 4 4 5 5 6 6 6 6 5 5 4 4 5 5 5 5 4 5 5 5 5 5 5 4 3 3 3 5 7 8 9 10 9 8 7 6 5 5 5 5 5 5 5 5 6
11 10 10 10 10 10 10 9 8 8 9 9 10 11 10 10 9 9 8 8 8 8 8 8 8 8 6 4 3 3 3 3 4 4 5 7 7 7 6 5 5 4 4 4 4 4 5 5 5 4 4 4 4 4 5 5 5 5 5 5 5 5 6 6 6 5 5 4 4 4 5 6 6 6 5 5 5 5 5 5 5 4 3 3 4 5 7 9 9 10 10 9 7 5 4 4 4 5 5 5 5 5 5
11 11 11 12 12 11 10 9 9 9 10 10 10 10 10 9 9 9 8 8 9 9 9 9 8 7 4 3 3 3 3 4 4 5 6 7 7 7 6 5 5 5 4 4 5 5 6 6 5 4 4 4 4 5 5 5 5 5 5 5 5 5 6 6 5 5 4 4 4 5 5 6 6 6 5 5 5 5 6 5 5 4 4 4 4 6 7 8 9 9 9 8 6 5 3 3 3 4 4 4 5 5 5
12 13 13 13 12 11 11 10 10 10 10 9 10 10 10 10 9 8 8 9 10 10 10 9 7 5 3 3 3 4 4 4 4 5 6 7 7 6 6 5 5 4 4 5 5 5 6 6 5 5 4 4 4 4 5 5 5 5 5 5 5 6 6 6 6 5 5 5 6 6 6 6 6 6 5 5 5 6 6 6 6 5 4 4 4 5 6 7 8 9 8 6 4 4 3 3 3 3 4 4 5 5 6
13 13 13 12 11 11 10 10 9 9 9 9 10 10 10 9 8 8 9 10 10 9 8 6 3 2 2 3 4 4 4 4 4 5 7 7 7 6 6 5 5 4 4 4 5 5 6 6 5 5 4 4 4 4 4 5 5 5 5 5 5 6 6 6 6 6 6 7 7 7 7 7 7 6 6 5 6 6 7 7 7 6 5 4 4 5 6 7 8 9 7 4 3 3 2 2 3 3 4 4 5 5 7
13 13 12 11 10 10 9 8 8 8 9 9 9 8 7 6 6 8 9 9 7 4 2 1 1 1 2 3 3 3 3 4 4 6 7 7 6 6 5 5 5 4 4 4 5 5 6 6 5 5 4 4 4 4 5 5 5 5 5 5 5 5 6 6 6 7 7 8 8 8 8 8 8 7 7 7 6 7 7 8 7 6 5 4 4 5 6 7 8 8 5 2 3 3 2 2 3 3 4 4 5 6 8
12 12 11 10 10 8 7 7 7 8 9 8 7 5 4 5 6 8 8 6 3 1 1 1 2 2 2 2 2 3 3 4 5 5 6 6 6 6 5 5 4 4 4 4 5 5 5 5 5 5 4 4 4 4 4 5 5 5 5 5 5 5 5 6 7 7 8 8 8 8 8 8 8 8 8 8 7 7 7 7 7 6 4 3 4 6 7 8 8 7 3 1 3 2 1 2 3 4 4 5 6 7 8
12 11 11 10 9 8 8 8 8 8 8 7 6 5 6 7 7 8 7 5 4 3 3 3 2 2 2 2 2 2 3 4 5 6 5 5 6 6 5 5 4 4 4 4 5 5 5 5 5 4 4 4 4 4 4 4 5 5 6 6 6 5 5 6 6 7 7 7 8 8 8 8 8 7 8 8 7 7 6 6 6 4 3 3 5 7 7 8 8 6 2 1 3 2 1 2 3 5 5 6 7 8 8
Wind_Direction
72 74 75 76 78 80 80 81 81 82 81 81 80 79 78 76 73 69 66 65 63 60 56 46 33 18 12 10 11 12 8 6 3 357 342 333 333 345 353 349 348 12 61 83 96 95 300 298 302 314 326 327 329 337 349 356 358 358 356 354 353 352 349 346 343 340 335 330 325 318 311 306 302 300 304 310 316 324 334 336 335 336 338 342 348 354 354 356 357 356 350 343 336 332 330 328 326 325 324 322 319 315 312
74 75 76 77 77 78 79 80 80 80 78 76 73 72 70 68 64 58 54 50 48 47 48 41 27 4 351 348 349 349 346 349 360 12 343 317 313 328 340 347 7 75 89 95 94 66 21 12 21 33 27 23 24 30 31 28 25 21 18 14 12 10 7 6 4 359 354 352 350 347 342 336 329 326 330 337 345 353 358 359 360 1 3 7 10 11 8 9 10 12 7 358 346 338 337 337 337 334 328 326 326 327 339
73 74 74 75 75 76 76 77 78 79 77 74 70 67 66 64 61 56 51 47 44 43 47 46 37 18 6 8 13 12 6 9 19 29 28 10 347 342 345 19 71 90 88 80 68 52 45 50 56 57 47 42 42 47 47 44 39 35 32 29 26 25 28 29 27 20 16 18 19 17 13 9 5 2 3 8 11 13 10 9 8 10 14 19 21 20 18 19 20 21 17 11 360 345 347 352 351 343 334 332 337 344 1
74 74 74 75 76 77 77 77 77 77 78 76 73 69 67 66 65 62 59 55 52 50 52 54 52 42 34 35 37 32 24 20 18 15 10 360 352 4 49 74 77 73 77 77 72 62 59 61 62 61 53 48 47 49 50 46 42 39 36 33 30 30 33 34 33 29 26 28 30 28 25 22 19 18 19 20 20 18 14 12 10 8 14 21 25 24 23 23 23 21 19 16 11 3 355 355 355 351 340 338 346 355 8
76 75 76 77 78 80 80 79 79 77 79 79 78 74 73 73 73 71 67 64 61 58 54 53 52 47 40 38 38 35 25 17 10 4 356 358 21 55 63 68 73 75 82 85 83 74 70 70 70 68 60 53 49 48 47 45 43 40 37 35 32 31 32 33 33 30 29 30 32 33 30 28 26 24 24 23 21 18 17 16 12 7 8 12 17 20 20 21 21 19 18 17 16 17 6 353 345 349 343 342 351 5 13
76 76 77 78 80 81 80 80 79 79 80 80 79 77 78 79 79 77 73 68 65 63 57 53 51 48 42 38 35 29 20 15 15 30 44 57 64 66 67 72 79 83 85 87 87 83 81 82 81 75 64 56 52 49 48 46 44 43 40 37 34 32 32 33 33 31 29 29 30 33 31 30 28 27 25 23 21 18 19 18 17 13 12 12 14 17 18 19 20 17 16 14 14 19 15 1 347 344 346 346 352 4 16
80 79 78 79 79 78 78 77 78 80 81 81 80 81 82 83 84 83 80 75 69 65 59 53 48 45 42 39 35 30 25 29 43 68 73 74 74 74 77 81 86 91 92 91 89 88 85 81 77 72 62 54 47 43 43 41 40 40 40 38 35 32 33 33 33 31 29 29 29 31 31 30 29 28 26 23 21 21 20 20 21 19 17 16 16 18 19 20 20 17 16 13 10 12 15 9 0 349 350 349 348 351 15
83 81 78 75 73 73 73 74 76 77 76 76 77 77 79 83 86 89 87 81 74 69 63 57 52 46 44 43 43 41 44 52 60 70 73 74 75 76 78 83 89 95 96 95 92 87 75 64 55 51 49 43 39 36 37 36 35 35 38 37 35 33 34 34 33 32 30 29 29 29 30 30 29 28 26 23 22 23 23 23 23 22 20 20 20 21 21 21 20 19 18 14 10 7 13 15 12 358 351 348 344 337 4
83 82 79 75 72 71 72 72 72 71 71 69 67 65 64 66 70 75 79 78 76 72 68 64 60 56 54 54 55 57 56 57 59 61 62 62 63 63 64 68 73 76 74 71 66 58 49 42 36 34 33 31 29 28 29 30 30 32 36 36 35 34 35 36 35 34 32 30 30 29 29 29 29 28 26 25 24 24 24 24 24 23 21 21 21 21 20 20 20 20 19 17 13 7 9 14 16 9 351 341 336 331 343
85 83 82 80 77 74 72 71 70 69 68 65 62 57 55 57 60 63 68 71 72 70 69 66 64 64 63 62 61 60 59 58 57 59 58 57 54 53 51 49 48 47 44 41 40 41 37 34 30 29 25 22 21 23 24 24 25 27 35 39 39 37 36 37 38 36 33 32 31 30 29 30 30 29 27 26 25 25 25 25 24 24 22 20 20 20 16 16 17 18 18 17 14 7 3 6 10 10 354 340 332 331 332
88 85 84 83 80 75 73 71 71 71 70 68 65 64 65 67 68 68 68 69 70 70 69 68 68 67 65 63 60 57 57 57 58 60 62 61 59 56 55 54 53 51 50 49 50 52 49 43 38 33 27 22 20 25 26 24 22 23 32 38 40 39 37 37 37 38 35 33 33 31 30 31 31 30 29 28 27 28 27 26 25 25 22 20 19 18 16 14 13 14 17 16 13 7 4 2 2 3 354 344 335 335 336
87 84 83 82 81 78 75 73 74 75 75 74 74 75 76 75 74 73 72 72 71 71 70 70 69 68 66 64 62 60 59 59 59 61 65 66 65 63 64 65 65 64 64 64 63 65 63 58 50 41 35 29 26 27 27 26 24 27 30 35 39 40 39 37 36 38 36 35 34 33 32 33 33 33 31 30 29 30 30 29 29 27 23 21 20 19 18 15 12 11 16 16 13 10 9 6 1 357 355 352 346 341 342
86 84 83 82 82 81 78 77 77 78 79 81 83 83 81 79 78 77 76 76 75 75 74 73 71 68 67 66 64 61 61 61 61 61 65 68 70 70 71 72 72 72 70 68 66 66 66 62 54 45 39 35 31 29 28 28 28 29 29 31 35 38 40 39 38 37 36 36 36 35 34 34 34 35 34 33 31 32 32 33 33 31 27 25 24 23 20 17 13 10 15 17 17 14 12 10 6 1 1 2 359 348 345
89 87 86 85 84 85 83 81 79 79 82 84 85 83 82 81 80 79 79 79 80 79 78 76 74 72 70 68 67 65 65 64 64 63 64 67 70 71 72 73 73 72 70 67 65 63 63 59 53 46 40 35 32 33 30 30 30 29 28 29 31 32 36 38 39 38 36 36 36 37 36 36 36 36 35 34 33 34 34 34 34 35 30 29 28 27 23 20 17 15 16 17 19 19 16 13 12 11 10 11 8 357 348
94 93 92 91 91 91 89 86 83 82 82 82 82 81 81 81 82 83 84 84 84 83 81 79 78 76 73 71 69 68 67 67 68 67 66 67 69 71 70 70 70 70 70 68 65 62 61 59 55 50 45 39 35 33 31 31 30 29 28 28 27 27 28 32 36 38 37 36 36 38 37 38 38 39 38 37 36 36 35 33 33 36 33 31 30 29 26 25 24 24 22 20 18 19 19 18 18 20 22 20 15 7 360
102 102 101 101 100 100 99 97 93 89 86 84 83 83 83 84 85 87 88 88 88 86 85 83 80 77 74 72 71 71 70 70 71 72 70 70 71 71 71 70 69 69 70 69 66 63 61 59 56 52 48 43 38 34 31 31 30 29 27 25 25 24 23 22 26 32 34 34 34 37 38 38 38 38 37 36 35 35 34 32 31 33 33 32 30 27 25 26 27 26 27 26 24 23 23 22 22 27 34 32 25 19 18
110 110 110 111 111 110 109 106 102 97 95 93 91 89 88 87 87 88 89 90 90 89 87 84 81 78 75 73 71 71 71 72 73 74 73 72 72 72 72 72 71 70 71 70 67 62 60 58 56 52 49 45 41 37 33 31 30 28 26 23 21 21 18 15 14 17 23 26 28 30 32 33 34 33 32 32 31 32 30 28 28 30 27 26 25 24 22 23 24 23 25 28 30 29 30 29 28 31 38 40 38 36 33
116 117 117 118 118 118 115 111 108 105 103 100 96 94 92 91 90 90 91 91 91 89 87 84 81 79 77 75 74 73 73 73 74 75 74 73 73 73 74 73 73 72 71 70 68 63 60 58 55 53 49 46 42 38 34 32 29 27 24 20 18 16 13 11 9 7 8 14 20 22 20 22 24 26 26 25 25 26 24 22 22 24 19 16 16 18 16 18 20 21 20 24 28 31 34 36 35 36 37 39 42 46 42
119 120 119 119 118 117 113 111 109 109 105 100 98 96 95 94 93 93 92 91 90 89 87 85 83 81 80 78 76 75 74 75 75 76 76 75 74 74 75 75 75 74 72 70 67 64 60 57 55 53 49 45 41 37 34 31 27 24 21 17 12 9 8 6 4 1 0 4 11 17 13 12 14 19 20 19 18 19 20 18 17 18 17 15 13 13 14 16 17 20 18 20 23 28 32 36 37 37 36 36 39 44 44
120 120 118 116 114 110 108 107 107 106 103 101 99 98 96 96 95 94 92 90 89 88 88 87 86 83 80 79 77 76 76 76 77 77 77 77 77 76 76 76 76 75 73 70 67 63 60 56 54 52 49 44 40 35 33 29 25 21 17 10 3 0 360 358 358 360 359 2 8 14 10 7 8 12 14 13 13 14 17 18 17 16 18 17 16 15 16 18 19 22 21 22 24 27 30 33 36 37 37 36 37 40 42
123 121 118 115 110 106 105 104 104 102 100 100 99 98 97 97 96 94 92 90 90 90 90 89 87 83 80 78 78 78 78 78 78 78 78 78 78 77 77 76 75 74 73 70 66 62 59 56 54 53 50 45 40 35 30 26 21 16 10 2 357 356 354 353 355 3 2 5 9 15 9 6 6 9 10 10 11 12 16 19 19 18 20 20 21 21 21 22 23 25 26 27 30 34 36 38 38 40 40 39 39 41 43
124 121 118 115 111 108 106 104 102 100 99 98 99 99 100 100 99 97 95 93 92 90 90 89 87 84 81 79 78 79 79 79 79 78 78 77 76 76 76 75 74 73 72 69 66 62 60 57 55 53 50 46 42 36 30 22 15 9 4 359 356 353 351 352 357 5 5 7 10 15 8 5 4 7 8 9 11 14 16 19 20 21 21 22 23 25 25 26 28 31 33 35 38 40 44 46 47 47 46 46 46 50 53
121 119 116 114 113 112 110 107 104 102 101 100 100 101 102 102 101 99 98 96 93 91 89 88 87 86 84 82 81 81 80 80 80 79 78 77 76 75 74 73 72 71 69 68 65 63 60 58 55 52 49 45 41 36 29 20 11 4 360 358 356 351 352 355 359 2 4 7 9 9 3 1 1 5 7 8 11 16 17 18 19 20 21 22 24 27 28 29 32 36 39 42 44 45 48 51 53 53 54 57 59 63 67
116 114 114 114 115 114 112 110 107 105 104 104 104 104 104 103 101 99 98 96 95 93 90 89 89 89 87 85 84 83 81 81 81 82 81 79 77 75 73 72 71 70 69 68 66 65 63 60 56 53 48 43 37 31 24 17 9 1 358 358 356 352 353 356 359 0 3 6 6 360 355 354 356 358 2 4 8 13 15 16 16 17 17 18 21 26 27 27 30 34 38 41 44 45 49 51 54 57 63 67 68 69 74
113 112 114 116 117 116 113 111 109 108 108 108 108 107 106 104 102 101 100 98 96 94 92 92 92 91 89 87 85 84 84 84 84 84 83 81 79 76 74 73 73 73 72 71 70 68 66 64 60 57 49 40 30 22 17 11 5 360 0 2 1 356 356 356 359 1 2 1 356 350 346 345 346 349 356 360 2 2 7 10 10 11 11 11 12 16 18 20 20 21 22 26 32 31 35 34 36 41 59 70 73 68 76
113 114 117 119 119 118 114 111 109 108 108 108 108 108 106 104 103 102 100 97 95 93 93 92 93 92 91 90 89 88 89 89 87 86 84 83 81 78 76 75 75 75 75 76 76 73 71 69 66 64 53 29 14 14 9 6 3 1 2 5 5 2 360 357 357 359 356 351 345 343 340 339 341 346 351 354 355 355 360 1 1 2 1 1 0 359 358 359 359 356 345 338 333 329 321 314 307 298 286 275 283 328 38
119 120 122 123 122 119 115 111 109 107 107 107 107 107 105 104 102 101 99 97 96 95 95 94 93 93 94 94 94 94 94 93 91 88 87 86 84 82 80 78 78 78 79 81 82 83 77 70 64 56 47 22 4 4 0 360 1 3 3 4 5 6 1 354 348 348 347 344 341 340 338 337 339 345 347 349 350 352 353 352 351 350 347 346 344 341 338 333 328 322 311 300 287 272 270 265 265 274 286 286 285 288 304
127 129 130 129 125 120 117 114 112 110 109 109 108 106 105 104 103 103 102 101 101 100 98 96 95 95 97 98 99 99 98 96 95 93 92 91 90 89 86 84 83 84 84 83 80 75 65 56 46 39 28 16 9 3 358 357 358 3 3 2 2 359 350 340 334 339 343 342 341 338 336 336 338 342 344 344 344 345 345 344 342 340 336 333 329 324 318 310 302 298 290 281 271 264 260 258 257 254 262 271 276 275 271
134 137 136 132 126 121 118 116 115 115 114 113 111 108 107 105 105 105 105 106 106 104 101 100 99 100 101 102 102 102 102 101 99 98 96 96 95 94 93 93 93 91 88 81 74 66 57 47 38 28 17 10 6 0 354 354 357 2 1 357 352 344 337 335 336 338 340 341 341 337 334 333 334 336 335 335 335 336 337 337 336 333 330 325 320 314 307 300 292 286 278 269 263 262 261 257 249 241 238 247 256 260 259
138 140 137 132 127 122 119 117 116 116 116 115 114 112 110 109 108 108 108 108 107 105 104 104 104 105 106 105 105 105 105 103 101 100 100 100 99 98 97 99 102 102 95 85 75 69 57 42 27 16 5 0 357 351 346 346 350 355 353 348 343 340 340 339 334 328 328 331 333 331 330 329 329 330 328 328 329 330 330 330 329 327 323 319 315 310 304 298 290 282 273 266 261 260 257 248 239 236 237 239 240 243 245
140 139 136 132 128 124 120 118 116 115 114 114 113 113 112 112 112 112 110 109 107 105 104 105 107 109 109 109 110 110 109 107 106 104 103 103 102 99 99 102 105 104 103 98 90 70 35 0 355 354 348 344 342 338 338 341 344 346 342 339 337 337 334 327 319 310 311 317 323 326 326 325 326 326 325 325 325 324 324 323 321 320 318 315 313 311 306 300 291 281 273 265 262 261 259 250 240 235 239 238 237 237 235
144 141 137 133 129 127 123 120 118 116 114 113 112 112 112 113 114 115 113 110 107 103 102 104 108 111 113 114 116 118 118 116 115 113 109 106 103 99 99 102 107 106 105 100 83 1 313 321 330 334 332 331 330 330 336 340 340 336 331 328 325 322 318 315 311 305 310 317 323 325 324 324 323 322 321 321 320 318 317 316 315 314 314 314 314 314 312 306 297 287 277 269 264 258 258 249 239 234 239 240 239 238 233
146 142 138 134 130 128 125 124 122 121 119 117 116 116 117 118 119 119 115 111 108 106 108 111 114 117 121 123 125 128 129 127 124 119 114 111 111 110 111 115 123 131 132 115 326 309 306 315 322 326 326 327 327 329 335 336 335 330 323 318 312 308 310 313 312 308 314 318 320 319 319 319 318 316 315 315 314 311 310 309 308 309 310 311 313 316 315 311 306 297 283 273 267 258 256 246 235 226 232 237 241 243 240
145 141 137 133 130 128 127 126 126 125 125 125 125 125 126 127 125 122 118 116 117 120 124 126 128 128 129 130 133 135 135 133 129 122 119 120 124 130 131 134 135 129 120 167 291 292 301 312 319 321 320 320 320 322 327 329 328 324 317 312 307 305 309 310 309 307 313 315 315 311 312 313 313 313 311 310 309 307 306 305 305 305 307 309 312 314 315 315 312 304 289 278 270 264 261 253 240 226 230 235 240 245 245
143 139 136 134 132 130 130 129 129 129 129 130 130 131 132 131 130 127 127 128 130 133 135 136 137 135 134 136 138 140 141 139 133 127 127 133 142 151 149 142 128 105 90 351 300 304 316 320 319 316 313 311 311 313 318 321 321 316 310 306 304 305 305 302 301 307 314 314 312 311 312 313 313 312 310 309 307 305 305 304 304 304 306 309 312 316 318 319 316 308 298 291 284 275 272 266 256 240 239 239 242 246 247
143 141 139 138 136 135 134 134 133 133 132 132 132 133 135 136 136 135 134 135 136 138 140 141 140 137 139 143 146 148 151 149 143 139 143 151 160 164 159 150 140 136 196 279 298 314 325 324 319 314 310 308 307 310 315 317 316 311 308 306 303 300 295 296 302 313 315 313 312 312 315 316 315 314 312 310 309 307 306 306 306 306 309 312 317 324 326 325 323 319 315 309 304 297 288 280 271 259 253 251 251 255 254
145 145 145 143 142 141 141 140 139 139 137 136 137 139 142 143 141 137 135 136 139 142 144 144 142 141 147 151 155 156 158 159 157 155 159 166 173 173 169 171 180 199 230 260 285 304 316 316 314 311 308 307 307 309 314 316 316 313 314 310 303 295 294 300 309 318 315 311 310 311 315 316 316 315 314 311 309 308 308 308 309 311 316 322 328 335 337 336 334 337 334 329 323 317 310 301 291 282 274 268 266 266 265
149 150 150 149 148 147 146 145 145 144 143 143 144 147 148 146 143 139 139 141 143 146 146 146 146 148 155 162 167 166 167 169 171 173 176 181 185 187 188 192 200 214 238 260 280 296 306 306 305 304 303 303 305 309 313 315 316 315 316 311 303 297 301 307 313 316 311 308 308 311 313 315 315 315 315 312 310 309 311 313 317 323 330 337 342 349 350 349 348 351 349 344 339 333 327 320 312 303 293 287 283 281 278
152 152 152 152 151 149 148 148 148 148 148 149 150 150 150 149 148 145 144 145 147 148 147 148 152 158 164 172 179 187 186 185 185 190 199 202 202 204 205 208 213 224 242 258 275 291 297 297 296 297 297 300 304 309 314 316 316 314 315 311 304 301 304 307 308 309 306 305 306 310 310 311 311 311 311 309 309 309 313 319 326 335 344 350 354 358 358 357 356 358 357 352 345 338 332 327 321 314 306 299 296 294 292
152 152 153 152 150 148 149 150 151 151 152 152 153 154 154 153 152 150 150 151 151 149 148 151 159 172 176 181 187 199 203 202 199 199 206 211 214 217 219 222 226 233 239 250 264 279 283 284 287 292 294 299 305 310 315 317 316 313 313 309 302 298 298 299 300 301 301 301 302 303 304 305 306 305 305 306 307 309 316 325 334 343 351 356 358 358 358 359 0 359 357 350 343 336 331 327 324 320 314 308 304 301 299
152 153 153 153 152 152 154 156 156 155 155 156 157 158 157 155 154 153 155 155 153 149 150 157 171 189 192 193 195 201 205 205 202 200 205 211 218 222 224 226 230 236 238 246 256 265 269 274 281 289 294 300 307 311 315 316 314 312 309 304 297 293 292 291 290 294 300 301 301 300 302 304 304 302 302 303 305 311 320 328 336 342 351 354 354 350 349 351 354 355 350 342 334 328 325 324 323 321 317 312 309 305 301
155 156 158 159 159 160 161 161 159 158 158 159 161 162 160 157 156 158 159 157 153 151 157 170 187 200 202 205 207 210 210 207 204 201 205 212 220 225 225 224 226 234 241 247 252 256 262 269 279 291 297 303 308 312 314 313 311 309 305 298 292 287 287 288 289 295 299 303 304 304 307 308 308 306 304 304 306 310 315 319 322 327 335 340 340 338 338 339 341 342 337 330 324 320 318 318 318 319 317 315 312 310 306
159 163 166 165 164 163 163 162 161 160 162 163 164 164 162 160 160 162 161 157 154 156 172 187 199 206 210 214 218 218 215 211 208 206 207 213 219 226 227 226 228 235 242 246 248 250 256 266 278 291 299 305 309 311 311 309 306 302 298 292 286 280 282 287 292 297 298 302 307 313 317 316 313 310 308 306 305 303 301 297 294 295 301 308 313 316 321 324 326 325 323 319 316 313 312 312 313 314 313 313 312 311 308
165 168 168 166 164 164 164 164 164 165 166 167 166 164 162 161 163 165 163 159 160 171 188 200 209 215 220 222 222 218 214 211 211 212 212 214 217 224 230 233 236 239 243 245 246 247 253 263 277 289 298 304 307 308 306 303 299 295 291 288 284 279 280 287 294 298 300 305 313 319 319 317 313 308 307 303 300 295 289 283 278 277 279 280 283 288 297 303 307 310 312 313 312 311 310 310 310 310 310 311 311 310 308
166 165 165 165 165 165 166 167 168 169 169 168 165 162 160 163 167 171 167 169 176 189 199 208 215 221 226 228 228 222 215 212 213 216 217 217 218 223 236 244 246 246 245 245 245 247 254 263 276 287 296 301 303 303 300 297 294 291 287 285 285 288 293 295 295 296 302 311 319 322 320 316 312 306 303 300 296 292 287 282 279 280 278 273 270 270 278 287 293 298 303 306 308 309 308 308 308 309 310 310 310 309 308
164 164 165 166 167 167 168 169 171 171 169 166 163 161 162 172 182 184 181 185 192 198 203 210 216 220 226 231 233 226 218 215 216 218 219 219 222 230 244 250 251 249 246 245 246 248 255 264 275 285 293 297 298 296 294 293 292 290 287 287 290 298 302 300 296 295 303 311 317 319 318 316 312 308 303 299 295 293 290 290 291 291 285 278 270 265 271 279 285 290 295 298 301 301 301 303 306 308 309 310 309 309 309
167 166 166 166 166 167 169 171 172 171 169 166 165 163 172 191 208 214 207 203 201 201 208 213 218 220 225 229 231 225 218 217 219 219 218 221 229 240 248 251 251 249 246 245 246 250 256 265 275 284 290 292 292 291 290 290 290 291 290 293 298 302 301 298 296 297 304 308 310 310 311 311 310 308 303 299 295 293 294 297 300 298 292 285 279 273 275 279 283 284 286 288 290 292 296 299 302 305 306 307 308 308 309
170 167 166 165 167 168 171 173 173 171 169 167 167 169 181 201 221 229 223 218 213 213 220 225 228 229 230 231 229 222 218 218 221 222 220 226 238 247 250 251 250 248 247 247 249 252 259 267 275 281 285 287 288 289 291 293 294 295 299 302 305 303 299 298 299 302 304 305 303 301 301 302 304 304 303 301 297 294 295 299 302 300 293 288 285 284 286 285 285 284 283 283 283 286 292 296 300 302 303 305 307 308 309
173 169 167 166 167 169 171 173 172 170 168 167 167 170 182 205 223 229 226 222 220 223 228 232 234 235 234 233 228 217 215 219 224 225 226 235 245 249 251 251 251 251 252 254 256 259 264 270 275 281 284 287 290 295 300 303 304 304 308 309 309 306 303 304 305 306 307 304 301 295 292 292 295 300 301 302 300 296 295 297 298 297 291 289 289 292 289 286 285 287 288 286 286 287 292 296 298 300 301 303 306 308 309
176 172 168 167 166 168 171 172 171 170 169 168 168 172 193 212 222 226 223 219 218 221 226 229 230 231 232 229 222 207 211 217 223 228 236 244 249 250 251 252 254 255 259 262 264 267 270 274 277 281 287 293 299 305 309 310 310 312 314 314 313 310 308 309 309 309 307 305 302 295 289 285 286 290 293 295 294 293 291 291 290 287 285 287 289 289 289 288 288 290 293 295 296 296 297 297 297 296 300 303 306 308 309
178 173 168 166 166 169 172 172 172 172 171 171 176 188 206 216 222 224 221 218 218 222 226 228 228 229 230 225 213 204 210 216 221 228 241 248 251 252 254 256 259 261 266 268 269 270 274 277 279 282 290 298 305 312 315 315 315 316 314 312 309 307 308 309 309 307 307 305 302 299 294 290 287 285 285 283 282 281 281 281 279 276 278 280 285 292 298 298 297 297 299 300 303 304 303 302 301 302 306 309 310 311 312
177 172 169 168 170 173 174 174 174 175 177 182 191 203 214 220 223 223 220 220 221 226 229 230 230 231 228 220 206 201 209 217 224 234 244 250 254 256 259 263 267 270 271 273 275 278 280 280 281 285 294 303 311 318 321 320 319 316 311 307 304 303 305 305 304 301 304 302 299 297 296 295 295 294 289 283 278 275 274 273 272 270 270 272 281 294 301 303 304 304 305 306 307 307 309 310 311 315 319 320 320 320 321
175 172 172 173 176 177 178 178 180 183 190 197 205 213 218 222 223 222 220 221 224 229 231 231 231 231 226 213 195 198 210 220 231 241 247 252 257 262 267 271 274 276 277 281 285 287 285 284 286 291 301 311 320 326 325 321 317 312 307 303 302 303 304 303 301 301 302 300 297 294 295 296 297 297 295 291 286 281 276 273 270 269 268 269 279 292 300 303 305 306 307 310 313 316 318 321 323 324 326 327 328 329 328
176 176 179 180 181 181 182 185 190 195 201 208 214 219 222 223 222 220 219 221 225 228 229 229 229 228 216 197 190 205 215 223 233 244 252 256 260 265 271 275 278 281 285 289 291 290 289 290 293 299 310 321 327 328 323 318 312 306 304 304 305 306 306 306 306 307 306 302 296 293 295 296 296 295 295 296 297 294 288 283 278 274 273 275 281 291 298 302 304 305 305 312 324 340 336 335 337 337 335 333 332 331 331
181 183 184 185 185 184 186 190 196 204 211 218 222 224 223 221 218 215 216 219 222 225 225 226 225 220 204 199 207 217 221 228 238 248 255 260 263 268 274 280 285 290 293 293 292 292 293 296 300 309 319 326 327 324 318 312 307 305 306 307 309 309 308 307 307 307 304 300 297 296 297 297 297 298 300 302 304 304 301 298 293 288 284 284 288 294 300 304 306 305 304 317 352 23 7 355 350 348 343 338 334 331 331
185 187 187 187 186 187 190 195 202 211 220 224 226 225 223 218 213 211 215 218 220 221 222 221 217 198 204 215 223 228 230 234 241 249 256 262 266 273 278 285 291 295 295 294 294 295 298 302 308 317 324 325 322 317 312 309 306 306 308 310 311 309 307 306 304 301 298 297 297 298 299 299 300 303 306 310 313 314 311 308 304 299 293 293 299 306 309 311 310 306 307 327 31 50 29 10 359 352 345 339 334 331 329
187 188 188 187 188 190 194 200 207 217 223 226 227 225 221 214 211 214 219 221 221 219 214 200 183 193 212 223 231 239 243 244 245 250 258 264 270 277 282 288 293 296 296 297 299 301 303 308 314 321 322 320 316 311 307 305 304 305 307 308 308 307 306 305 304 303 302 302 303 304 304 305 306 309 313 317 320 321 316 312 306 300 299 306 318 324 323 320 316 309 314 359 69 71 46 21 2 349 341 334 329 326 326
188 189 188 188 190 194 200 206 214 221 224 226 225 222 216 214 216 221 226 228 228 214 207 207 211 212 216 226 238 245 251 253 252 251 258 267 275 283 289 293 295 298 301 304 306 307 309 313 316 319 317 315 312 307 304 302 302 304 305 306 306 307 308 309 310 310 309 309 309 309 309 310 311 313 317 320 321 321 316 309 302 297 307 326 339 339 336 330 323 315 323 58 95 95 55 13 353 340 332 327 324 323 324
191 190 188 188 191 198 206 214 219 223 223 222 218 212 212 217 222 224 225 228 232 227 219 219 225 229 222 224 235 246 254 258 259 257 260 269 278 286 291 295 300 306 310 312 312 312 313 314 314 314 312 310 307 304 301 301 302 305 307 309 311 316 316 314 312 311 310 309 308 308 308 309 311 314 317 319 320 320 313 303 297 297 320 349 353 350 346 339 331 325 336 100 115 121 52 346 337 330 325 322 321 321 321